Location: Chandolas
(44.4033°N, 4.2533°E)
Time: 10:25:43
(UTC+00:00)

Cosmos 1515 Rocket - Pass Details

Date: 15 November 2019
Orbit: 605 x 631 km, 82.5° (Epoch: 13 December)

Event Time Altitude Azimuth Distance (km) Brightness Sun altitude
Rises 05:29:14 0° 353° (N) 2,876 6.8 -12.5°
Reaches altitude 10° 05:31:29 10° 355° (N) 1,966 5.9 -12.1°
Maximum altitude 05:35:49 73° 81° (E) 637 3.8 -11.3°
Drops below altitude 10° 05:40:07 10° 166° (SSE) 1,949 6.5 -10.6°
Sets 05:42:20 0° 168° (SSE) 2,849 7.4 -10.2°
